When you browse on this site, cookies collect data to enhance your experience and personalize the content and advertising you see.
Visit our Privacy Policy to learn more. By continuing to use the site, you agree to this use of cookies and data.
  • en France
  • Liste des pays
  • À 7 jours
  • Température de l'eau
  • Carte satellitaire
  • Carte météo
  • Widgets météo
  • user-avatar
    Se connecter

    Météo par heure à Kitzbühel

    Ce jour, 26 Avril, Vendredi

    Heure Température Précipitation Vent Pression Humidité
    00:00 +10°C° 0 mm 3 m/s 674 mmHg 77%
    01:00 +9°C° 0 mm 3 m/s 674 mmHg 79%
    02:00 +9°C° 0 mm 3 m/s 674 mmHg 79%
    03:00 +9°C° 0 mm 3 m/s 674 mmHg 79%
    04:00 +9°C° 0 mm 3 m/s 673 mmHg 79%
    05:00 +10°C° 0 mm 3 m/s 673 mmHg 75%
    06:00 +11°C° 0 mm 3 m/s 673 mmHg 72%
    07:00 +14°C° 0 mm 2 m/s 673 mmHg 68%
    08:00 +16°C° 0 mm 2 m/s 674 mmHg 60%
    09:00 +18°C° 0 mm 2 m/s 674 mmHg 53%
    10:00 +20°C° 0 mm 2 m/s 675 mmHg 45%
    11:00 +19°C° 0 mm 2 m/s 675 mmHg 47%
    12:00 +19°C° 0 mm 3 m/s 675 mmHg 49%
    13:00 +18°C° 0 mm 3 m/s 675 mmHg 52%
    14:00 +14°C° 1.6 mm 3 m/s 674 mmHg 65%
    15:00 +10°C° 1.6 mm 3 m/s 674 mmHg 79%
    16:00 +7°C° 1.6 mm 2 m/s 673 mmHg 93%
    17:00 +6°C° 2.6 mm 2 m/s 674 mmHg 94%
    18:00 +5°C° 2.6 mm 2 m/s 674 mmHg 95%
    19:00 +4°C° 2.6 mm 1 m/s 674 mmHg 96%
    20:00 +4°C° 0.3 mm 1 m/s 675 mmHg 96%
    21:00 +4°C° 0.3 mm 1 m/s 675 mmHg 96%
    22:00 +4°C° 0.3 mm 1 m/s 675 mmHg 95%
    23:00 +3°C° 0.1 mm 1 m/s 675 mmHg 95%

    Demain, 27 Avril, Samedi

    Heure Température Précipitation Vent Pression Humidité
    00:00 +3°C° 0.1 mm 1 m/s 676 mmHg 94%
    01:00 +3°C° 0.1 mm 1 m/s 676 mmHg 94%
    02:00 +3°C° 0.4 mm 1 m/s 676 mmHg 95%
    03:00 +3°C° 0.4 mm 1 m/s 676 mmHg 95%
    04:00 +4°C° 0.4 mm 1 m/s 676 mmHg 96%
    05:00 +4°C° 0.4 mm 1 m/s 676 mmHg 95%
    06:00 +4°C° 0.4 mm 1 m/s 676 mmHg 94%
    07:00 +4°C° 0.4 mm 1 m/s 677 mmHg 94%
    08:00 +5°C° 0.4 mm 1 m/s 677 mmHg 91%
    09:00 +6°C° 0.4 mm 1 m/s 677 mmHg 89%
    10:00 +7°C° 0.4 mm 1 m/s 677 mmHg 86%
    11:00 +8°C° 0.1 mm 1 m/s 677 mmHg 81%
    12:00 +10°C° 0.1 mm 1 m/s 677 mmHg 76%
    13:00 +11°C° 0.1 mm 1 m/s 677 mmHg 72%
    14:00 +11°C° 0.1 mm 1 m/s 677 mmHg 72%
    15:00 +11°C° 0.1 mm 1 m/s 677 mmHg 73%
    16:00 +11°C° 0.1 mm 1 m/s 676 mmHg 73%
    17:00 +9°C° 0.3 mm 1 m/s 676 mmHg 80%
    18:00 +8°C° 0.3 mm 1 m/s 676 mmHg 87%
    19:00 +7°C° 0.3 mm 1 m/s 676 mmHg 95%
    20:00 +6°C° 0.2 mm 1 m/s 677 mmHg 95%
    21:00 +5°C° 0.2 mm 0 m/s 677 mmHg 95%
    22:00 +4°C° 0.2 mm 0 m/s 678 mmHg 95%
    23:00 +5°C° 1.1 mm 1 m/s 678 mmHg 96%

    Après-demain, 28 Avril, Dimanche

    Heure Température Précipitation Vent Pression Humidité
    00:00 +5°C° 1.1 mm 1 m/s 678 mmHg 97%
    01:00 +5°C° 1.1 mm 1 m/s 678 mmHg 98%
    02:00 +3°C° 1.2 mm 2 m/s 678 mmHg 98%
    03:00 +3°C° 1.2 mm 2 m/s 677 mmHg 98%
    04:00 +2°C° 1.2 mm 2 m/s 677 mmHg 97%
    05:00 +2°C° 1.1 mm 2 m/s 677 mmHg 97%
    06:00 +3°C° 1.1 mm 1 m/s 677 mmHg 96%
    07:00 +2°C° 1.1 mm 1 m/s 677 mmHg 96%
    08:00 +3°C° 0.8 mm 1 m/s 677 mmHg 95%
    09:00 +4°C° 0.8 mm 1 m/s 677 mmHg 94%
    10:00 +4°C° 0.8 mm 1 m/s 677 mmHg 93%
    11:00 +4°C° 0.7 mm 1 m/s 677 mmHg 93%
    12:00 +5°C° 0.7 mm 1 m/s 677 mmHg 93%
    13:00 +5°C° 0.7 mm 1 m/s 677 mmHg 93%
    14:00 +5°C° 0.3 mm 1 m/s 677 mmHg 93%
    15:00 +5°C° 0.3 mm 1 m/s 677 mmHg 93%
    16:00 +5°C° 0.3 mm 1 m/s 677 mmHg 92%
    17:00 +4°C° 0.2 mm 1 m/s 677 mmHg 93%
    18:00 +3°C° 0.2 mm 1 m/s 677 mmHg 94%
    19:00 +3°C° 0.2 mm 1 m/s 676 mmHg 95%
    20:00 +2°C° 0.2 mm 1 m/s 677 mmHg 95%
    21:00 +2°C° 0.2 mm 1 m/s 677 mmHg 95%
    22:00 +1°C° 0.2 mm 1 m/s 677 mmHg 94%
    23:00 +1°C° 0.2 mm 1 m/s 677 mmHg 94%

    29 Avril, Lundi

    Heure Température Précipitation Vent Pression Humidité
    00:00 +1°C° 0.2 mm 1 m/s 677 mmHg 94%
    01:00 +1°C° 0.2 mm 1 m/s 677 mmHg 94%
    02:00 +1°C° 0.4 mm 1 m/s 677 mmHg 94%
    03:00 +1°C° 0.4 mm 1 m/s 676 mmHg 95%
    04:00 +1°C° 0.4 mm 1 m/s 676 mmHg 95%
    05:00 +1°C° 0.3 mm 1 m/s 676 mmHg 95%
    06:00 +2°C° 0.3 mm 1 m/s 676 mmHg 94%
    07:00 +1°C° 0.3 mm 0 m/s 676 mmHg 94%
    08:00 +4°C° 0.1 mm 1 m/s 676 mmHg 93%
    09:00 +5°C° 0.1 mm 1 m/s 677 mmHg 92%
    10:00 +6°C° 0.1 mm 1 m/s 677 mmHg 91%
    11:00 +6°C° 0.3 mm 1 m/s 677 mmHg 90%
    12:00 +7°C° 0.3 mm 1 m/s 676 mmHg 90%
    13:00 +7°C° 0.3 mm 1 m/s 676 mmHg 90%
    14:00 +7°C° 0.4 mm 1 m/s 676 mmHg 91%
    15:00 +7°C° 0.4 mm 1 m/s 676 mmHg 91%
    16:00 +7°C° 0.4 mm 1 m/s 676 mmHg 91%
    17:00 +6°C° 0.2 mm 1 m/s 676 mmHg 93%
    18:00 +5°C° 0.2 mm 1 m/s 676 mmHg 95%
    19:00 +4°C° 0.2 mm 1 m/s 676 mmHg 97%
    20:00 +4°C° 0 mm 1 m/s 676 mmHg 96%
    21:00 +3°C° 0 mm 1 m/s 676 mmHg 96%
    22:00 +2°C° 0 mm 1 m/s 676 mmHg 95%
    23:00 +2°C° 0 mm 1 m/s 676 mmHg 94%

    30 Avril, Mardi

    Heure Température Précipitation Vent Pression Humidité
    00:00 +2°C° 0 mm 1 m/s 676 mmHg 93%
    01:00 +1°C° 0 mm 1 m/s 676 mmHg 92%
    02:00 +1°C° 0 mm 1 m/s 676 mmHg 92%
    03:00 +1°C° 0 mm 1 m/s 676 mmHg 92%
    04:00 +1°C° 0 mm 1 m/s 676 mmHg 91%
    05:00 +2°C° 0 mm 1 m/s 676 mmHg 91%
    06:00 +3°C° 0 mm 1 m/s 676 mmHg 90%
    07:00 +4°C° 0 mm 1 m/s 676 mmHg 89%
    08:00 +6°C° 0 mm 1 m/s 676 mmHg 86%
    09:00 +8°C° 0 mm 1 m/s 676 mmHg 83%
    10:00 +9°C° 0 mm 1 m/s 676 mmHg 80%
    11:00 +10°C° 0.1 mm 1 m/s 676 mmHg 78%
    12:00 +11°C° 0.1 mm 1 m/s 676 mmHg 76%
    13:00 +11°C° 0.1 mm 1 m/s 676 mmHg 74%
    14:00 +11°C° 0.1 mm 1 m/s 675 mmHg 75%
    15:00 +11°C° 0.1 mm 1 m/s 675 mmHg 75%
    16:00 +10°C° 0.1 mm 1 m/s 675 mmHg 76%
    17:00 +9°C° 0.1 mm 1 m/s 675 mmHg 82%
    18:00 +7°C° 0.1 mm 1 m/s 674 mmHg 88%
    19:00 +6°C° 0.1 mm 1 m/s 674 mmHg 94%
    20:00 +5°C° 0 mm 1 m/s 675 mmHg 93%
    21:00 +4°C° 0 mm 1 m/s 675 mmHg 93%
    22:00 +3°C° 0 mm 1 m/s 675 mmHg 92%
    23:00 +2°C° 0 mm 2 m/s 675 mmHg 91%

    1 Mai, Mercredi

    Heure Température Précipitation Vent Pression Humidité
    00:00 +1°C° 0 mm 2 m/s 675 mmHg 90%
    01:00 +1°C° 0 mm 2 m/s 675 mmHg 88%
    02:00 +1°C° 0 mm 2 m/s 675 mmHg 88%
    03:00 +1°C° 0 mm 2 m/s 675 mmHg 87%
    04:00 +1°C° 0 mm 2 m/s 674 mmHg 87%
    05:00 +3°C° 0 mm 1 m/s 675 mmHg 85%
    06:00 +5°C° 0 mm 1 m/s 675 mmHg 82%
    07:00 +7°C° 0 mm 1 m/s 675 mmHg 80%
    08:00 +9°C° 0 mm 1 m/s 675 mmHg 75%
    09:00 +10°C° 0 mm 0 m/s 675 mmHg 70%
    10:00 +13°C° 0 mm 0 m/s 675 mmHg 65%
    11:00 +13°C° 0 mm 0 m/s 675 mmHg 62%
    12:00 +14°C° 0 mm 0 m/s 675 mmHg 60%
    13:00 +16°C° 0 mm 1 m/s 675 mmHg 57%
    14:00 +15°C° 0 mm 1 m/s 675 mmHg 58%
    15:00 +15°C° 0 mm 1 m/s 674 mmHg 59%
    16:00 +15°C° 0 mm 1 m/s 674 mmHg 60%
    17:00 +13°C° 0.1 mm 1 m/s 673 mmHg 69%
    18:00 +10°C° 0.1 mm 0 m/s 673 mmHg 77%
    19:00 +8°C° 0.1 mm 0 m/s 673 mmHg 85%
    20:00 +8°C° 0 mm 1 m/s 673 mmHg 86%
    21:00 +6°C° 0 mm 2 m/s 673 mmHg 87%
    22:00 +5°C° 0 mm 2 m/s 673 mmHg 88%
    23:00 +5°C° 0 mm 2 m/s 673 mmHg 87%
    Voir plus